Regional Weather Roundup
Issued by NWS

Home | Current Version | Previous Version | Text Only | Print | Product List | Glossary On
Versions: 1 2 3 4 5 6 7 8 9 10 11 12 13 14 15 16 17 18 19 20 21 22 23 24 25 26 27 28 29 30 31 32 33 34 35 36 37 38 39 40 41 42 43 44 45 46 47 48 49 50
000
ASUS43 KOAX 281502
RWRNE

WEATHER ROUNDUP FOR NEBRASKA
NATIONAL WEATHER SERVICE OMAHA NE
1000 AM CDT MON JUL 28 2014

NOTES: SATELLITE DATA IS BEING USED TO AUGMENT CLOUD COVER ABOVE
       12000 FEET.
       "FAIR" INDICATES FEW OR NO CLOUDS BELOW 12,000 FEET WITH NO
       SIGNIFICANT WEATHER AND/OR OBSTRUCTIONS TO VISIBILITY.

  * THESE STATIONS DO NOT REPORT WEATHER SUCH AS RAIN...SNOW OR FOG.

NEZ001>004-019>022-054>056-281600-
NEBRASKA PANHANDLE

CITY           SKY/WX    TMP DP  RH WIND       PRES   REMARKS
SCOTTSBLUFF    SUNNY     67  53  61 E12       30.35S
ALLIANCE       SUNNY     71  51  49 SE18      30.35S
CHADRON        MOSUNNY   69  53  56 E5        30.34S
KIMBALL        SUNNY     72  56  57 SE3       30.36R
SIDNEY         SUNNY     72  50  45 E8        30.36R
$$

NEZ057>060-069>072-079>082-281600-
SOUTHWEST NEBRASKA

CITY           SKY/WX    TMP DP  RH WIND       PRES   REMARKS
NORTH PLATTE   SUNNY     67  57  70 SE7       30.35S
IMPERIAL       SUNNY     69  57  65 SE16      30.35R
LEXINGTON      SUNNY     66  58  74 E5        30.36R
MCCOOK         MOSUNNY   70  58  65 SE12      30.36R
OGALLALA       SUNNY     67  57  70 E10       30.35R
$$

NEZ005>010-023>029-035>040-094-281600-
NORTH CENTRAL NEBRASKA

CITY           SKY/WX    TMP DP  RH WIND       PRES   REMARKS
VALENTINE      SUNNY     68  54  60 VRB5      30.35F
AINSWORTH      SUNNY     64  54  69 NE3       30.36S
BROKEN BOW     SUNNY     68  55  63 VRB3      30.35R
O`NEILL        SUNNY     66  54  64 N9        30.34S
ORD            SUNNY     67  55  65 NE8       30.33R
THEDFORD       MOSUNNY   67  57  69 E3        30.37R
$$

NEZ041-046>049-061>064-073>077-083>087-281600-
SOUTH CENTRAL NEBRASKA

CITY           SKY/WX    TMP DP  RH WIND       PRES   REMARKS
GRAND ISLAND   SUNNY     67  55  65 N7        30.34R
AURORA         SUNNY     68  58  70 N7        30.32S
HASTINGS       SUNNY     67  54  63 N8        30.34R
HEBRON         SUNNY     68  55  62 N9        30.32R
HOLDREGE       SUNNY     67  55  66 NE8       30.35S
KEARNEY *      SUNNY     66  54  63 NE8       30.35S
YORK           MOSUNNY   66  59  77 N9        30.32S
$$

NEZ011>018-030>034-042>045-281600-
NORTHEAST NEBRASKA

CITY           SKY/WX    TMP DP  RH WIND       PRES   REMARKS
NORFOLK        MOSUNNY   68  55  63 N12       30.31R
ALBION         SUNNY     64  56  74 N9        30.33R
BLAIR          CLOUDY    65  56  72 N9        30.27R
COLUMBUS *     SUNNY     63  55  77 NW13      30.31R
FREMONT        SUNNY     69  57  66 NW8       30.29R
WAYNE          MOSUNNY   67  58  72 NW10      30.29S
$$

NEZ050>053-065>068-078-088>093-281600-
SOUTHEAST NEBRASKA

CITY           SKY/WX    TMP DP  RH WIND       PRES   REMARKS
LINCOLN        MOSUNNY   71  54  54 N14       30.29F
OMAHA EPPLEY   PTSUNNY   66  56  70 N7        30.27S
BEATRICE       SUNNY     68  56  66 N13G20    30.29R
FALLS CITY     SUNNY     69  59  70 N9        30.25R
NEBRASKA CITY  CLOUDY    66  57  74 N7        30.27S
PLATTSMOUTH    CLOUDY    66  57  72 N7        30.27R
$$

NEZ044-045-051>053-067-281600-
OMAHA AREA

CITY           SKY/WX    TMP DP  RH WIND       PRES   REMARKS
OMAHA EPPLEY   PTSUNNY   66  56  70 N7        30.27S
BLAIR          CLOUDY    65  56  72 N9        30.27R
FREMONT        SUNNY     69  57  66 NW8       30.29R
MILLARD        PTSUNNY   67  57  69 N6        30.26S
OFFUTT AFB     CLOUDY    66  60  80 NW7       30.26R
PLATTSMOUTH    CLOUDY    66  57  72 N7        30.27R
WAHOO          FAIR      68  56  65 NW6       30.29R
$$



USA.gov is the U.S. government's official web portal to all federal, state and local government web resources and services.